Time,TemperatureF,DewpointF,PressureIn,WindDirection,WindDirectionDegrees,WindSpeedMPH,WindSpeedGustMPH,Humidity,HourlyPrecipIn,Conditions,Clouds,dailyrainin,SoftwareType,DateUTC
2013-09-03 00:03:00,64.0,56.0,29.51,NNW,337,6.0,6.0,75,0.00,,,0.00,Rainwise IP-100,2013-09-03 05:03:00,
2013-09-03 00:08:00,64.0,56.0,29.51,NNW,337,6.0,6.0,75,0.00,,,0.00,Rainwise IP-100,2013-09-03 05:08:00,
2013-09-03 00:13:00,64.0,56.0,29.51,NNW,337,6.0,6.0,75,0.00,,,0.00,Rainwise IP-100,2013-09-03 05:13:00,
2013-09-03 00:18:00,63.0,56.0,29.52,NNW,337,0.0,6.0,79,0.00,,,0.00,Rainwise IP-100,2013-09-03 05:18:00,
2013-09-03 00:23:00,63.0,56.0,29.52,NNW,337,0.0,6.0,79,0.00,,,0.00,Rainwise IP-100,2013-09-03 05:23:00,
2013-09-03 00:28:00,63.0,56.0,29.52,NNW,337,0.0,6.0,79,0.00,,,0.00,Rainwise IP-100,2013-09-03 05:28:00,
2013-09-03 00:33:00,62.0,56.0,29.52,West,270,3.0,6.0,80,0.00,,,0.00,Rainwise IP-100,2013-09-03 05:33:00,
2013-09-03 00:38:00,62.0,56.0,29.52,WNW,292,3.0,4.0,80,0.00,,,0.00,Rainwise IP-100,2013-09-03 05:38:00,
2013-09-03 00:43:00,62.0,56.0,29.52,West,270,3.0,4.0,80,0.00,,,0.00,Rainwise IP-100,2013-09-03 05:43:00,
2013-09-03 00:48:00,62.0,56.0,29.52,West,270,3.0,4.0,80,0.00,,,0.00,Rainwise IP-100,2013-09-03 05:48:00,
2013-09-03 00:53:00,62.0,56.0,29.52,West,270,3.0,4.0,80,0.00,,,0.00,Rainwise IP-100,2013-09-03 05:53:00,
2013-09-03 00:58:00,62.0,56.0,29.52,West,270,3.0,4.0,80,0.00,,,0.00,Rainwise IP-100,2013-09-03 05:58:00,
2013-09-03 01:03:00,62.0,56.0,29.52,WNW,292,3.0,4.0,80,0.00,,,0.00,Rainwise IP-100,2013-09-03 06:03:00,
2013-09-03 01:08:00,62.0,56.0,29.52,West,270,2.0,4.0,80,0.00,,,0.00,Rainwise IP-100,2013-09-03 06:08:00,
2013-09-03 01:13:00,62.0,56.0,29.52,West,270,2.0,4.0,80,0.00,,,0.00,Rainwise IP-100,2013-09-03 06:13:00,
2013-09-03 01:18:00,62.0,56.0,29.52,WNW,292,3.0,4.0,80,0.00,,,0.00,Rainwise IP-100,2013-09-03 06:18:00,
2013-09-03 01:23:00,62.0,56.0,29.52,West,270,2.0,4.0,80,0.00,,,0.00,Rainwise IP-100,2013-09-03 06:23:00,
2013-09-03 01:28:00,62.0,56.0,29.52,West,270,2.0,4.0,80,0.00,,,0.00,Rainwise IP-100,2013-09-03 06:28:00,
2013-09-03 01:33:00,62.0,56.0,29.52,West,270,2.0,4.0,80,0.00,,,0.00,Rainwise IP-100,2013-09-03 06:33:00,
2013-09-03 01:38:00,62.0,56.0,29.52,West,270,2.0,4.0,80,0.00,,,0.00,Rainwise IP-100,2013-09-03 06:38:00,
2013-09-03 01:43:00,62.0,56.0,29.52,WNW,292,3.0,4.0,80,0.00,,,0.00,Rainwise IP-100,2013-09-03 06:43:00,
2013-09-03 01:48:00,62.0,56.0,29.52,West,270,2.0,4.0,80,0.00,,,0.00,Rainwise IP-100,2013-09-03 06:48:00,
2013-09-03 01:53:00,62.0,56.0,29.52,West,270,2.0,4.0,80,0.00,,,0.00,Rainwise IP-100,2013-09-03 06:53:00,
2013-09-03 01:58:00,62.0,56.0,29.52,West,270,2.0,4.0,80,0.00,,,0.00,Rainwise IP-100,2013-09-03 06:58:00,
2013-09-03 02:03:00,62.0,56.0,29.52,West,270,2.0,4.0,80,0.00,,,0.00,Rainwise IP-100,2013-09-03 07:03:00,
2013-09-03 02:08:00,62.0,56.0,29.52,West,270,2.0,4.0,80,0.00,,,0.00,Rainwise IP-100,2013-09-03 07:08:00,
2013-09-03 02:13:00,62.0,56.0,29.52,WNW,292,3.0,4.0,80,0.00,,,0.00,Rainwise IP-100,2013-09-03 07:13:00,
2013-09-03 02:18:00,60.0,54.0,29.53,NNW,337,2.0,4.0,81,0.00,,,0.00,Rainwise IP-100,2013-09-03 07:18:00,
2013-09-03 02:23:00,60.0,54.0,29.53,NW,315,0.0,3.0,81,0.00,,,0.00,Rainwise IP-100,2013-09-03 07:23:00,
2013-09-03 02:28:00,60.0,54.0,29.53,NNW,337,2.0,3.0,81,0.00,,,0.00,Rainwise IP-100,2013-09-03 07:28:00,
2013-09-03 02:33:00,60.0,54.0,29.53,NNW,337,2.0,2.0,81,0.00,,,0.00,Rainwise IP-100,2013-09-03 07:33:00,
2013-09-03 02:38:00,60.0,54.0,29.53,NNW,337,2.0,2.0,81,0.00,,,0.00,Rainwise IP-100,2013-09-03 07:38:00,
2013-09-03 02:43:00,60.0,54.0,29.53,NNW,337,2.0,2.0,81,0.00,,,0.00,Rainwise IP-100,2013-09-03 07:43:00,
2013-09-03 02:48:00,60.0,54.0,29.53,NNW,337,2.0,2.0,81,0.00,,,0.00,Rainwise IP-100,2013-09-03 07:48:00,
2013-09-03 02:53:00,60.0,54.0,29.54,NW,315,2.0,3.0,81,0.00,,,0.00,Rainwise IP-100,2013-09-03 07:53:00,
2013-09-03 02:58:00,60.0,54.0,29.54,NW,315,2.0,3.0,81,0.00,,,0.00,Rainwise IP-100,2013-09-03 07:58:00,
2013-09-03 03:03:00,60.0,54.0,29.54,NW,315,2.0,3.0,81,0.00,,,0.00,Rainwise IP-100,2013-09-03 08:03:00,
2013-09-03 03:08:00,60.0,54.0,29.54,NW,315,2.0,3.0,81,0.00,,,0.00,Rainwise IP-100,2013-09-03 08:08:00,
2013-09-03 03:13:00,60.0,54.0,29.54,NW,315,2.0,3.0,82,0.00,,,0.00,Rainwise IP-100,2013-09-03 08:13:00,
2013-09-03 03:18:00,60.0,54.0,29.54,NW,315,2.0,3.0,82,0.00,,,0.00,Rainwise IP-100,2013-09-03 08:18:00,
2013-09-03 03:23:00,60.0,54.0,29.54,NW,315,2.0,3.0,82,0.00,,,0.00,Rainwise IP-100,2013-09-03 08:23:00,
2013-09-03 03:28:00,60.0,54.0,29.54,NW,315,2.0,4.0,83,0.00,,,0.00,Rainwise IP-100,2013-09-03 08:28:00,
2013-09-03 03:33:00,60.0,54.0,29.54,NW,315,2.0,3.0,83,0.00,,,0.00,Rainwise IP-100,2013-09-03 08:33:00,
2013-09-03 03:38:00,60.0,54.0,29.54,NW,315,2.0,3.0,83,0.00,,,0.00,Rainwise IP-100,2013-09-03 08:38:00,
2013-09-03 03:43:00,60.0,55.0,29.55,West,270,0.0,3.0,84,0.00,,,0.00,Rainwise IP-100,2013-09-03 08:43:00,
2013-09-03 03:48:00,60.0,55.0,29.55,West,270,0.0,0.0,84,0.00,,,0.00,Rainwise IP-100,2013-09-03 08:48:00,
2013-09-03 03:53:00,60.0,55.0,29.55,West,270,0.0,0.0,84,0.00,,,0.00,Rainwise IP-100,2013-09-03 08:53:00,
2013-09-03 03:58:00,60.0,55.0,29.55,West,270,0.0,0.0,84,0.00,,,0.00,Rainwise IP-100,2013-09-03 08:58:00,
2013-09-03 04:03:00,60.0,55.0,29.55,West,270,0.0,0.0,84,0.00,,,0.00,Rainwise IP-100,2013-09-03 09:03:00,
2013-09-03 04:08:00,60.0,55.0,29.55,North,360,3.0,6.0,84,0.00,,,0.00,Rainwise IP-100,2013-09-03 09:08:00,
2013-09-03 04:13:00,60.0,55.0,29.55,North,360,3.0,6.0,84,0.00,,,0.00,Rainwise IP-100,2013-09-03 09:13:00,
2013-09-03 04:18:00,60.0,55.0,29.55,North,360,3.0,6.0,84,0.00,,,0.00,Rainwise IP-100,2013-09-03 09:18:00,
2013-09-03 04:23:00,60.0,55.0,29.55,North,360,3.0,6.0,84,0.00,,,0.00,Rainwise IP-100,2013-09-03 09:23:00,
2013-09-03 04:28:00,60.0,54.0,29.56,NNW,337,1.0,6.0,82,0.00,,,0.00,Rainwise IP-100,2013-09-03 09:28:00,
2013-09-03 04:33:00,60.0,54.0,29.56,NW,315,2.0,6.0,81,0.00,,,0.00,Rainwise IP-100,2013-09-03 09:33:00,
2013-09-03 04:38:00,60.0,54.0,29.56,NW,315,2.0,3.0,81,0.00,,,0.00,Rainwise IP-100,2013-09-03 09:38:00,
2013-09-03 04:43:00,60.0,54.0,29.56,NW,315,2.0,3.0,81,0.00,,,0.00,Rainwise IP-100,2013-09-03 09:43:00,
2013-09-03 04:48:00,60.0,54.0,29.56,NW,315,2.0,3.0,81,0.00,,,0.00,Rainwise IP-100,2013-09-03 09:48:00,
2013-09-03 04:53:00,60.0,54.0,29.56,NNW,337,3.0,3.0,81,0.00,,,0.00,Rainwise IP-100,2013-09-03 09:53:00,
2013-09-03 04:58:00,60.0,54.0,29.56,NW,315,2.0,3.0,81,0.00,,,0.00,Rainwise IP-100,2013-09-03 09:58:00,
2013-09-03 05:03:00,60.0,54.0,29.56,NW,315,2.0,3.0,81,0.00,,,0.00,Rainwise IP-100,2013-09-03 10:03:00,
2013-09-03 05:08:00,59.0,54.0,29.57,NW,315,3.0,3.0,83,0.00,,,0.00,Rainwise IP-100,2013-09-03 10:08:00,
2013-09-03 05:13:00,59.0,54.0,29.57,NNW,337,3.0,4.0,83,0.00,,,0.00,Rainwise IP-100,2013-09-03 10:13:00,
2013-09-03 05:18:00,59.0,54.0,29.57,NNW,337,3.0,4.0,83,0.00,,,0.00,Rainwise IP-100,2013-09-03 10:18:00,
2013-09-03 05:23:00,59.0,54.0,29.58,NNW,337,0.0,4.0,85,0.00,,,0.00,Rainwise IP-100,2013-09-03 10:23:00,
2013-09-03 05:28:00,59.0,54.0,29.58,NNW,337,0.0,1.0,85,0.00,,,0.00,Rainwise IP-100,2013-09-03 10:28:00,
2013-09-03 05:33:00,59.0,54.0,29.58,NNW,337,0.0,1.0,85,0.00,,,0.00,Rainwise IP-100,2013-09-03 10:33:00,
2013-09-03 05:38:00,59.0,54.0,29.58,NNW,337,0.0,1.0,85,0.00,,,0.00,Rainwise IP-100,2013-09-03 10:38:00,
2013-09-03 05:43:00,59.0,54.0,29.58,NNW,337,0.0,1.0,85,0.00,,,0.00,Rainwise IP-100,2013-09-03 10:43:00,
2013-09-03 05:48:00,59.0,54.0,29.58,NNW,337,0.0,1.0,85,0.00,,,0.00,Rainwise IP-100,2013-09-03 10:48:00,
2013-09-03 05:53:00,59.0,54.0,29.58,NNW,337,0.0,1.0,85,0.00,,,0.00,Rainwise IP-100,2013-09-03 10:53:00,
2013-09-03 05:58:00,59.0,54.0,29.58,NNW,337,0.0,1.0,85,0.00,,,0.00,Rainwise IP-100,2013-09-03 10:58:00,
2013-09-03 06:03:00,59.0,54.0,29.58,NNW,337,0.0,1.0,85,0.00,,,0.00,Rainwise IP-100,2013-09-03 11:03:00,
2013-09-03 06:08:00,59.0,54.0,29.58,NNW,337,0.0,1.0,85,0.00,,,0.00,Rainwise IP-100,2013-09-03 11:08:00,
2013-09-03 06:13:00,59.0,54.0,29.58,NNW,337,0.0,1.0,85,0.00,,,0.00,Rainwise IP-100,2013-09-03 11:13:00,
2013-09-03 06:18:00,59.0,54.0,29.58,NNW,337,0.0,1.0,85,0.00,,,0.00,Rainwise IP-100,2013-09-03 11:18:00,
2013-09-03 06:23:00,59.0,54.0,29.58,NNW,337,0.0,1.0,85,0.00,,,0.00,Rainwise IP-100,2013-09-03 11:23:00,
2013-09-03 06:28:00,59.0,54.0,29.58,NNW,337,0.0,1.0,85,0.00,,,0.00,Rainwise IP-100,2013-09-03 11:28:00,
2013-09-03 06:33:00,59.0,54.0,29.58,NNW,337,0.0,1.0,85,0.00,,,0.00,Rainwise IP-100,2013-09-03 11:33:00,
2013-09-03 06:38:00,59.0,54.0,29.58,NNW,337,0.0,1.0,85,0.00,,,0.00,Rainwise IP-100,2013-09-03 11:38:00,
2013-09-03 06:43:00,57.0,53.0,29.61,West,270,0.0,1.0,88,0.00,,,0.00,Rainwise IP-100,2013-09-03 11:43:00,
2013-09-03 06:48:00,57.0,53.0,29.61,West,270,0.0,0.0,88,0.00,,,0.00,Rainwise IP-100,2013-09-03 11:48:00,
2013-09-03 06:53:00,57.0,53.0,29.61,West,270,0.0,0.0,88,0.00,,,0.00,Rainwise IP-100,2013-09-03 11:53:00,
2013-09-03 06:58:00,57.0,53.0,29.61,West,270,0.0,0.0,88,0.00,,,0.00,Rainwise IP-100,2013-09-03 11:58:00,
2013-09-03 07:03:00,57.0,53.0,29.61,West,270,0.0,0.0,88,0.00,,,0.00,Rainwise IP-100,2013-09-03 12:03:00,
2013-09-03 07:08:00,57.0,53.0,29.61,NNW,337,1.0,2.0,88,0.00,,,0.00,Rainwise IP-100,2013-09-03 12:08:00,
2013-09-03 07:13:00,57.0,53.0,29.61,NNW,337,1.0,2.0,88,0.00,,,0.00,Rainwise IP-100,2013-09-03 12:13:00,
2013-09-03 07:18:00,57.0,53.0,29.61,NNW,337,1.0,2.0,88,0.00,,,0.00,Rainwise IP-100,2013-09-03 12:18:00,
2013-09-03 07:23:00,57.0,53.0,29.61,NNW,337,1.0,2.0,88,0.00,,,0.00,Rainwise IP-100,2013-09-03 12:23:00,
2013-09-03 07:28:00,57.0,53.0,29.61,NNW,337,1.0,2.0,88,0.00,,,0.00,Rainwise IP-100,2013-09-03 12:28:00,
2013-09-03 07:33:00,57.0,53.0,29.61,NNW,337,1.0,2.0,88,0.00,,,0.00,Rainwise IP-100,2013-09-03 12:33:00,
2013-09-03 07:38:00,57.0,53.0,29.61,NNW,337,1.0,2.0,88,0.00,,,0.00,Rainwise IP-100,2013-09-03 12:38:00,
2013-09-03 07:43:00,60.0,54.0,29.61,NW,315,2.0,4.0,81,0.00,,,0.00,Rainwise IP-100,2013-09-03 12:43:00,
2013-09-03 07:48:00,60.0,54.0,29.61,NW,315,1.0,4.0,81,0.00,,,0.00,Rainwise IP-100,2013-09-03 12:48:00,
2013-09-03 07:53:00,60.0,54.0,29.61,NW,315,3.0,4.0,81,0.00,,,0.00,Rainwise IP-100,2013-09-03 12:53:00,
2013-09-03 07:58:00,60.0,54.0,29.61,NW,315,3.0,4.0,81,0.00,,,0.00,Rainwise IP-100,2013-09-03 12:58:00,
2013-09-03 08:03:00,62.0,55.0,29.61,West,270,4.0,6.0,78,0.00,,,0.00,Rainwise IP-100,2013-09-03 13:03:00,
2013-09-03 08:08:00,62.0,55.0,29.61,West,270,4.0,6.0,78,0.00,,,0.00,Rainwise IP-100,2013-09-03 13:08:00,
2013-09-03 08:13:00,62.0,55.0,29.61,West,270,4.0,6.0,78,0.00,,,0.00,Rainwise IP-100,2013-09-03 13:13:00,
2013-09-03 08:18:00,62.0,55.0,29.61,WNW,292,4.0,6.0,78,0.00,,,0.00,Rainwise IP-100,2013-09-03 13:18:00,
2013-09-03 08:23:00,62.0,55.0,29.61,West,270,4.0,6.0,78,0.00,,,0.00,Rainwise IP-100,2013-09-03 13:23:00,
2013-09-03 08:28:00,62.0,55.0,29.61,West,270,4.0,6.0,78,0.00,,,0.00,Rainwise IP-100,2013-09-03 13:28:00,
2013-09-03 08:33:00,65.0,54.0,29.60,North,360,5.0,7.0,70,0.00,,,0.00,Rainwise IP-100,2013-09-03 13:33:00,
2013-09-03 08:38:00,65.0,54.0,29.60,North,360,5.0,7.0,70,0.00,,,0.00,Rainwise IP-100,2013-09-03 13:38:00,
2013-09-03 08:43:00,65.0,54.0,29.60,North,360,5.0,7.0,70,0.00,,,0.00,Rainwise IP-100,2013-09-03 13:43:00,
2013-09-03 08:48:00,65.0,54.0,29.60,North,360,5.0,7.0,70,0.00,,,0.00,Rainwise IP-100,2013-09-03 13:48:00,
2013-09-03 08:53:00,65.0,54.0,29.60,North,360,5.0,7.0,70,0.00,,,0.00,Rainwise IP-100,2013-09-03 13:53:00,
2013-09-03 08:58:00,67.0,55.0,29.59,NW,315,2.0,7.0,65,0.00,,,0.00,Rainwise IP-100,2013-09-03 13:58:00,
2013-09-03 09:03:00,67.0,55.0,29.59,NW,315,2.0,4.0,65,0.00,,,0.00,Rainwise IP-100,2013-09-03 14:03:00,
2013-09-03 09:08:00,67.0,55.0,29.59,NW,315,2.0,4.0,65,0.00,,,0.00,Rainwise IP-100,2013-09-03 14:08:00,
2013-09-03 09:13:00,67.0,55.0,29.59,WNW,292,3.0,4.0,65,0.00,,,0.00,Rainwise IP-100,2013-09-03 14:13:00,
2013-09-03 09:18:00,67.0,55.0,29.59,WNW,292,3.0,4.0,65,0.00,,,0.00,Rainwise IP-100,2013-09-03 14:18:00,
2013-09-03 09:23:00,67.0,55.0,29.59,WNW,292,3.0,4.0,65,0.00,,,0.00,Rainwise IP-100,2013-09-03 14:23:00,
2013-09-03 09:28:00,67.0,55.0,29.59,WNW,292,3.0,4.0,65,0.00,,,0.00,Rainwise IP-100,2013-09-03 14:28:00,
2013-09-03 09:33:00,67.0,55.0,29.59,WNW,292,3.0,4.0,65,0.00,,,0.00,Rainwise IP-100,2013-09-03 14:33:00,
2013-09-03 09:38:00,67.0,55.0,29.59,WNW,292,3.0,4.0,65,0.00,,,0.00,Rainwise IP-100,2013-09-03 14:38:00,
2013-09-03 09:43:00,68.0,53.0,29.58,WNW,292,3.0,9.0,59,0.00,,,0.00,Rainwise IP-100,2013-09-03 14:43:00,
2013-09-03 09:48:00,68.0,53.0,29.58,WNW,292,3.0,9.0,59,0.00,,,0.00,Rainwise IP-100,2013-09-03 14:48:00,
2013-09-03 09:53:00,68.0,53.0,29.58,WNW,292,4.0,9.0,59,0.00,,,0.00,Rainwise IP-100,2013-09-03 14:53:00,
2013-09-03 09:58:00,68.0,53.0,29.58,WNW,292,4.0,9.0,59,0.00,,,0.00,Rainwise IP-100,2013-09-03 14:58:00,
2013-09-03 10:03:00,68.0,53.0,29.58,WNW,292,4.0,9.0,59,0.00,,,0.00,Rainwise IP-100,2013-09-03 15:03:00,
2013-09-03 10:08:00,68.0,53.0,29.58,WNW,292,4.0,9.0,59,0.00,,,0.00,Rainwise IP-100,2013-09-03 15:08:00,
2013-09-03 10:13:00,68.0,53.0,29.58,WNW,292,4.0,9.0,59,0.00,,,0.00,Rainwise IP-100,2013-09-03 15:13:00,
2013-09-03 10:18:00,71.0,54.0,29.58,NNW,337,6.0,9.0,56,0.00,,,0.00,Rainwise IP-100,2013-09-03 15:18:00,
2013-09-03 10:23:00,71.0,54.0,29.58,NNW,337,6.0,9.0,56,0.00,,,0.00,Rainwise IP-100,2013-09-03 15:23:00,
2013-09-03 10:28:00,71.0,54.0,29.58,NNW,337,6.0,7.0,56,0.00,,,0.00,Rainwise IP-100,2013-09-03 15:28:00,
2013-09-03 10:33:00,71.0,54.0,29.58,NNW,337,7.0,7.0,56,0.00,,,0.00,Rainwise IP-100,2013-09-03 15:33:00,
2013-09-03 10:38:00,71.0,54.0,29.58,NNW,337,7.0,7.0,56,0.00,,,0.00,Rainwise IP-100,2013-09-03 15:38:00,
2013-09-03 10:43:00,71.0,54.0,29.58,NNW,337,7.0,7.0,56,0.00,,,0.00,Rainwise IP-100,2013-09-03 15:43:00,
2013-09-03 10:48:00,71.0,54.0,29.58,NNW,337,7.0,7.0,56,0.00,,,0.00,Rainwise IP-100,2013-09-03 15:48:00,
2013-09-03 10:53:00,71.0,54.0,29.58,NW,315,3.0,7.0,56,0.00,,,0.00,Rainwise IP-100,2013-09-03 15:53:00,
2013-09-03 10:58:00,68.0,54.0,29.59,NW,315,2.0,7.0,61,0.00,,,0.00,Rainwise IP-100,2013-09-03 15:58:00,
2013-09-03 11:03:00,68.0,54.0,29.59,NW,315,2.0,7.0,61,0.00,,,0.00,Rainwise IP-100,2013-09-03 16:03:00,
2013-09-03 11:08:00,68.0,54.0,29.59,NW,315,2.0,3.0,61,0.00,,,0.00,Rainwise IP-100,2013-09-03 16:08:00,
2013-09-03 11:13:00,68.0,54.0,29.59,WNW,292,3.0,3.0,61,0.00,,,0.00,Rainwise IP-100,2013-09-03 16:13:00,
2013-09-03 11:18:00,72.0,54.0,29.59,SSW,202,1.0,3.0,55,0.00,,,0.00,Rainwise IP-100,2013-09-03 16:18:00,
2013-09-03 11:23:00,72.0,54.0,29.59,SSW,202,0.0,2.0,55,0.00,,,0.00,Rainwise IP-100,2013-09-03 16:23:00,
2013-09-03 11:28:00,70.0,53.0,29.58,NW,315,3.0,5.0,56,0.00,,,0.00,Rainwise IP-100,2013-09-03 16:28:00,
2013-09-03 11:33:00,70.0,53.0,29.58,NW,315,3.0,5.0,56,0.00,,,0.00,Rainwise IP-100,2013-09-03 16:33:00,
2013-09-03 11:38:00,70.0,53.0,29.58,NW,315,3.0,5.0,56,0.00,,,0.00,Rainwise IP-100,2013-09-03 16:38:00,
2013-09-03 11:43:00,70.0,53.0,29.58,NW,315,3.0,5.0,56,0.00,,,0.00,Rainwise IP-100,2013-09-03 16:43:00,
2013-09-03 11:48:00,70.0,53.0,29.58,NW,315,3.0,5.0,56,0.00,,,0.00,Rainwise IP-100,2013-09-03 16:48:00,
2013-09-03 11:53:00,70.0,55.0,29.58,West,270,3.0,5.0,59,0.00,,,0.00,Rainwise IP-100,2013-09-03 16:53:00,
2013-09-03 11:58:00,71.0,54.0,29.57,South,180,6.0,6.0,56,0.00,,,0.00,Rainwise IP-100,2013-09-03 16:58:00,
2013-09-03 12:03:00,71.0,54.0,29.57,SSE,157,6.0,6.0,56,0.00,,,0.00,Rainwise IP-100,2013-09-03 17:03:00,
2013-09-03 12:08:00,71.0,54.0,29.57,SSE,157,6.0,6.0,56,0.00,,,0.00,Rainwise IP-100,2013-09-03 17:08:00,
2013-09-03 12:13:00,71.0,54.0,29.57,SSE,157,6.0,6.0,56,0.00,,,0.00,Rainwise IP-100,2013-09-03 17:13:00,
2013-09-03 12:18:00,71.0,54.0,29.57,SSE,157,6.0,6.0,56,0.00,,,0.00,Rainwise IP-100,2013-09-03 17:18:00,
2013-09-03 12:23:00,71.0,54.0,29.57,South,180,6.0,6.0,56,0.00,,,0.00,Rainwise IP-100,2013-09-03 17:23:00,
2013-09-03 12:28:00,71.0,54.0,29.57,SSE,157,6.0,6.0,56,0.00,,,0.00,Rainwise IP-100,2013-09-03 17:28:00,
2013-09-03 12:33:00,71.0,54.0,29.57,SSE,157,6.0,6.0,56,0.00,,,0.00,Rainwise IP-100,2013-09-03 17:33:00,
2013-09-03 12:38:00,75.0,54.0,29.55,West,270,2.0,6.0,48,0.00,,,0.00,Rainwise IP-100,2013-09-03 17:38:00,
2013-09-03 12:43:00,74.0,53.0,29.55,SE,135,3.0,6.0,48,0.00,,,0.00,Rainwise IP-100,2013-09-03 17:43:00,
2013-09-03 12:48:00,74.0,53.0,29.55,SE,135,3.0,6.0,48,0.00,,,0.00,Rainwise IP-100,2013-09-03 17:48:00,
2013-09-03 12:53:00,74.0,53.0,29.55,SE,135,3.0,6.0,48,0.00,,,0.00,Rainwise IP-100,2013-09-03 17:53:00,
2013-09-03 12:58:00,73.0,53.0,29.56,East,90,5.0,6.0,49,0.00,,,0.00,Rainwise IP-100,2013-09-03 17:58:00,
2013-09-03 13:03:00,73.0,53.0,29.56,East,90,5.0,6.0,49,0.00,,,0.00,Rainwise IP-100,2013-09-03 18:03:00,
2013-09-03 13:08:00,73.0,53.0,29.56,East,90,5.0,6.0,49,0.00,,,0.00,Rainwise IP-100,2013-09-03 18:08:00,
2013-09-03 13:13:00,73.0,53.0,29.56,East,90,5.0,6.0,49,0.00,,,0.00,Rainwise IP-100,2013-09-03 18:13:00,
2013-09-03 13:18:00,73.0,53.0,29.56,East,90,5.0,6.0,49,0.00,,,0.00,Rainwise IP-100,2013-09-03 18:18:00,
2013-09-03 13:23:00,73.0,53.0,29.56,East,90,5.0,6.0,49,0.00,,,0.00,Rainwise IP-100,2013-09-03 18:23:00,
2013-09-03 13:28:00,73.0,53.0,29.56,East,90,5.0,6.0,49,0.00,,,0.00,Rainwise IP-100,2013-09-03 18:28:00,
2013-09-03 13:33:00,73.0,53.0,29.56,East,90,5.0,6.0,49,0.00,,,0.00,Rainwise IP-100,2013-09-03 18:33:00,
2013-09-03 13:38:00,73.0,53.0,29.56,East,90,5.0,6.0,49,0.00,,,0.00,Rainwise IP-100,2013-09-03 18:38:00,
2013-09-03 13:43:00,73.0,53.0,29.56,East,90,5.0,6.0,49,0.00,,,0.00,Rainwise IP-100,2013-09-03 18:43:00,
2013-09-03 13:48:00,75.0,53.0,29.53,South,180,6.0,6.0,46,0.00,,,0.00,Rainwise IP-100,2013-09-03 18:48:00,
2013-09-03 13:53:00,75.0,53.0,29.53,South,180,6.0,10.0,46,0.00,,,0.00,Rainwise IP-100,2013-09-03 18:53:00,
2013-09-03 13:58:00,75.0,53.0,29.53,South,180,6.0,10.0,46,0.00,,,0.00,Rainwise IP-100,2013-09-03 18:58:00,
2013-09-03 14:03:00,75.0,53.0,29.53,NW,315,3.0,10.0,45,0.00,,,0.00,Rainwise IP-100,2013-09-03 19:03:00,
2013-09-03 14:08:00,75.0,53.0,29.53,NW,315,3.0,7.0,45,0.00,,,0.00,Rainwise IP-100,2013-09-03 19:08:00,
2013-09-03 14:13:00,75.0,53.0,29.53,NW,315,3.0,7.0,45,0.00,,,0.00,Rainwise IP-100,2013-09-03 19:13:00,
2013-09-03 14:18:00,75.0,53.0,29.53,NW,315,3.0,7.0,45,0.00,,,0.00,Rainwise IP-100,2013-09-03 19:18:00,
2013-09-03 14:23:00,76.0,53.0,29.52,West,270,1.0,7.0,46,0.00,,,0.00,Rainwise IP-100,2013-09-03 19:23:00,
2013-09-03 14:28:00,76.0,53.0,29.52,West,270,1.0,6.0,46,0.00,,,0.00,Rainwise IP-100,2013-09-03 19:28:00,
2013-09-03 14:33:00,76.0,53.0,29.52,SE,135,3.0,6.0,46,0.00,,,0.00,Rainwise IP-100,2013-09-03 19:33:00,
2013-09-03 14:38:00,76.0,53.0,29.52,WNW,292,4.0,6.0,45,0.00,,,0.00,Rainwise IP-100,2013-09-03 19:38:00,
2013-09-03 14:43:00,76.0,53.0,29.52,WNW,292,4.0,7.0,45,0.00,,,0.00,Rainwise IP-100,2013-09-03 19:43:00,
2013-09-03 14:48:00,76.0,53.0,29.52,WNW,292,4.0,7.0,45,0.00,,,0.00,Rainwise IP-100,2013-09-03 19:48:00,
2013-09-03 14:52:00,76.0,53.0,29.52,West,270,6.0,7.0,45,0.00,,,0.00,Rainwise IP-100,2013-09-03 19:52:00,
2013-09-03 14:57:00,76.0,53.0,29.52,West,270,7.0,7.0,45,0.00,,,0.00,Rainwise IP-100,2013-09-03 19:57:00,
2013-09-03 15:02:00,76.0,53.0,29.52,West,270,7.0,7.0,45,0.00,,,0.00,Rainwise IP-100,2013-09-03 20:02:00,
2013-09-03 15:07:00,75.0,56.0,29.51,SE,135,6.0,7.0,51,0.00,,,0.00,Rainwise IP-100,2013-09-03 20:07:00,
2013-09-03 15:12:00,75.0,56.0,29.51,SE,135,6.0,7.0,51,0.00,,,0.00,Rainwise IP-100,2013-09-03 20:12:00,
2013-09-03 15:17:00,75.0,56.0,29.51,SE,135,6.0,7.0,51,0.00,,,0.00,Rainwise IP-100,2013-09-03 20:17:00,
2013-09-03 15:22:00,75.0,56.0,29.51,SE,135,6.0,7.0,51,0.00,,,0.00,Rainwise IP-100,2013-09-03 20:22:00,
2013-09-03 15:27:00,75.0,56.0,29.51,SE,135,6.0,7.0,51,0.00,,,0.00,Rainwise IP-100,2013-09-03 20:27:00,
2013-09-03 15:32:00,75.0,56.0,29.51,SE,135,6.0,7.0,51,0.00,,,0.00,Rainwise IP-100,2013-09-03 20:32:00,
2013-09-03 15:37:00,76.0,52.0,29.50,NNW,337,8.0,8.0,43,0.00,,,0.00,Rainwise IP-100,2013-09-03 20:37:00,
2013-09-03 15:42:00,76.0,52.0,29.50,NNW,337,8.0,8.0,43,0.00,,,0.00,Rainwise IP-100,2013-09-03 20:42:00,
2013-09-03 15:47:00,76.0,52.0,29.50,NNW,337,8.0,8.0,43,0.00,,,0.00,Rainwise IP-100,2013-09-03 20:47:00,
2013-09-03 15:52:00,76.0,52.0,29.50,NNW,337,8.0,8.0,43,0.00,,,0.00,Rainwise IP-100,2013-09-03 20:52:00,
2013-09-03 15:57:00,76.0,52.0,29.50,NNW,337,8.0,8.0,43,0.00,,,0.00,Rainwise IP-100,2013-09-03 20:57:00,
2013-09-03 16:02:00,76.0,52.0,29.50,North,360,7.0,8.0,43,0.00,,,0.00,Rainwise IP-100,2013-09-03 21:02:00,
2013-09-03 16:07:00,76.0,52.0,29.50,NNW,337,7.0,8.0,43,0.00,,,0.00,Rainwise IP-100,2013-09-03 21:07:00,
2013-09-03 16:12:00,76.0,52.0,29.50,North,360,7.0,8.0,43,0.00,,,0.00,Rainwise IP-100,2013-09-03 21:12:00,
2013-09-03 16:17:00,76.0,52.0,29.50,NNW,337,7.0,8.0,43,0.00,,,0.00,Rainwise IP-100,2013-09-03 21:17:00,
2013-09-03 16:22:00,76.0,52.0,29.50,NNW,337,7.0,8.0,43,0.00,,,0.00,Rainwise IP-100,2013-09-03 21:22:00,
2013-09-03 16:24:00,76.0,52.0,29.50,NNW,337,3.0,8.0,43,0.00,,,0.00,Rainwise IP-100,2013-09-03 21:24:00,
2013-09-03 16:30:00,75.0,57.0,29.49,East,90,2.0,8.0,55,0.00,,,0.00,Rainwise IP-100,2013-09-03 21:30:00,
2013-09-03 16:35:00,74.0,57.0,29.49,SE,135,6.0,7.0,55,0.00,,,0.00,Rainwise IP-100,2013-09-03 21:35:00,
2013-09-03 16:40:00,74.0,57.0,29.49,SE,135,6.0,7.0,55,0.00,,,0.00,Rainwise IP-100,2013-09-03 21:40:00,
2013-09-03 16:45:00,74.0,57.0,29.49,SE,135,5.0,7.0,55,0.00,,,0.00,Rainwise IP-100,2013-09-03 21:45:00,
2013-09-03 16:50:00,74.0,57.0,29.49,SE,135,6.0,7.0,57,0.00,,,0.00,Rainwise IP-100,2013-09-03 21:50:00,
2013-09-03 16:55:00,74.0,57.0,29.49,SE,135,6.0,7.0,57,0.00,,,0.00,Rainwise IP-100,2013-09-03 21:55:00,
2013-09-03 17:00:00,74.0,57.0,29.49,SE,135,6.0,7.0,57,0.00,,,0.00,Rainwise IP-100,2013-09-03 22:00:00,
2013-09-03 17:05:00,74.0,57.0,29.49,SE,135,6.0,7.0,57,0.00,,,0.00,Rainwise IP-100,2013-09-03 22:05:00,
2013-09-03 17:10:00,74.0,57.0,29.49,SE,135,6.0,7.0,57,0.00,,,0.00,Rainwise IP-100,2013-09-03 22:10:00,
2013-09-03 17:15:00,74.0,57.0,29.49,SE,135,6.0,7.0,57,0.00,,,0.00,Rainwise IP-100,2013-09-03 22:15:00,
2013-09-03 17:20:00,74.0,57.0,29.49,SE,135,6.0,7.0,57,0.00,,,0.00,Rainwise IP-100,2013-09-03 22:20:00,
2013-09-03 17:25:00,74.0,57.0,29.49,ESE,112,7.0,7.0,57,0.00,,,0.00,Rainwise IP-100,2013-09-03 22:25:00,
2013-09-03 17:30:00,72.0,58.0,29.51,ESE,112,5.0,7.0,62,0.00,,,0.00,Rainwise IP-100,2013-09-03 22:30:00,
2013-09-03 17:35:00,72.0,58.0,29.51,ESE,112,5.0,5.0,62,0.00,,,0.00,Rainwise IP-100,2013-09-03 22:35:00,
2013-09-03 17:40:00,72.0,58.0,29.51,ESE,112,5.0,5.0,62,0.00,,,0.00,Rainwise IP-100,2013-09-03 22:40:00,
2013-09-03 17:45:00,72.0,59.0,29.51,SE,135,3.0,5.0,63,0.00,,,0.00,Rainwise IP-100,2013-09-03 22:45:00,
2013-09-03 17:50:00,72.0,59.0,29.51,SE,135,4.0,5.0,63,0.00,,,0.00,Rainwise IP-100,2013-09-03 22:50:00,
2013-09-03 17:55:00,72.0,59.0,29.51,SE,135,3.0,5.0,63,0.00,,,0.00,Rainwise IP-100,2013-09-03 22:55:00,
2013-09-03 18:00:00,72.0,59.0,29.51,SE,135,3.0,5.0,63,0.00,,,0.00,Rainwise IP-100,2013-09-03 23:00:00,
2013-09-03 18:05:00,72.0,59.0,29.51,SE,135,4.0,5.0,63,0.00,,,0.00,Rainwise IP-100,2013-09-03 23:05:00,
2013-09-03 18:10:00,72.0,58.0,29.52,East,90,4.0,5.0,62,0.00,,,0.00,Rainwise IP-100,2013-09-03 23:10:00,
2013-09-03 18:15:00,72.0,58.0,29.52,East,90,4.0,5.0,62,0.00,,,0.00,Rainwise IP-100,2013-09-03 23:15:00,
2013-09-03 18:20:00,72.0,58.0,29.52,East,90,4.0,5.0,62,0.00,,,0.00,Rainwise IP-100,2013-09-03 23:20:00,
2013-09-03 18:25:00,72.0,58.0,29.52,East,90,4.0,5.0,62,0.00,,,0.00,Rainwise IP-100,2013-09-03 23:25:00,
2013-09-03 18:30:00,72.0,58.0,29.52,East,90,4.0,5.0,62,0.00,,,0.00,Rainwise IP-100,2013-09-03 23:30:00,
2013-09-03 18:35:00,72.0,58.0,29.52,East,90,4.0,5.0,62,0.00,,,0.00,Rainwise IP-100,2013-09-03 23:35:00,
2013-09-03 18:40:00,71.0,58.0,29.53,South,180,2.0,5.0,65,0.00,,,0.00,Rainwise IP-100,2013-09-03 23:40:00,
2013-09-03 18:45:00,71.0,58.0,29.53,South,180,2.0,3.0,65,0.00,,,0.00,Rainwise IP-100,2013-09-03 23:45:00,
2013-09-03 18:50:00,71.0,58.0,29.53,South,180,3.0,3.0,65,0.00,,,0.00,Rainwise IP-100,2013-09-03 23:50:00,
2013-09-03 18:55:00,71.0,58.0,29.53,South,180,2.0,3.0,65,0.00,,,0.00,Rainwise IP-100,2013-09-03 23:55:00,
2013-09-03 19:00:00,71.0,58.0,29.53,SE,135,2.0,5.0,65,0.00,,,0.00,Rainwise IP-100,2013-09-04 00:00:00,
2013-09-03 19:05:00,71.0,58.0,29.53,SE,135,2.0,2.0,65,0.00,,,0.00,Rainwise IP-100,2013-09-04 00:05:00,
2013-09-03 19:10:00,71.0,58.0,29.53,SE,135,2.0,2.0,65,0.00,,,0.00,Rainwise IP-100,2013-09-04 00:10:00,
2013-09-03 19:15:00,71.0,58.0,29.53,SE,135,2.0,2.0,65,0.00,,,0.00,Rainwise IP-100,2013-09-04 00:15:00,
2013-09-03 19:20:00,70.0,59.0,29.53,SE,135,2.0,4.0,68,0.00,,,0.00,Rainwise IP-100,2013-09-04 00:20:00,
2013-09-03 19:25:00,70.0,59.0,29.53,SE,135,1.0,4.0,68,0.00,,,0.00,Rainwise IP-100,2013-09-04 00:25:00,
2013-09-03 19:30:00,70.0,59.0,29.53,SE,135,1.0,2.0,68,0.00,,,0.00,Rainwise IP-100,2013-09-04 00:30:00,
2013-09-03 19:35:00,70.0,59.0,29.53,SE,135,1.0,2.0,68,0.00,,,0.00,Rainwise IP-100,2013-09-04 00:35:00,
2013-09-03 19:40:00,70.0,59.0,29.53,SE,135,1.0,2.0,68,0.00,,,0.00,Rainwise IP-100,2013-09-04 00:40:00,
2013-09-03 19:45:00,70.0,59.0,29.53,SE,135,1.0,2.0,68,0.00,,,0.00,Rainwise IP-100,2013-09-04 00:45:00,
2013-09-03 19:50:00,70.0,59.0,29.53,SE,135,1.0,2.0,68,0.00,,,0.00,Rainwise IP-100,2013-09-04 00:50:00,
2013-09-03 19:55:00,70.0,59.0,29.53,SE,135,1.0,2.0,68,0.00,,,0.00,Rainwise IP-100,2013-09-04 00:55:00,
2013-09-03 20:00:00,70.0,59.0,29.53,SE,135,1.0,2.0,68,0.00,,,0.00,Rainwise IP-100,2013-09-04 01:00:00,
2013-09-03 20:05:00,70.0,59.0,29.53,SE,135,1.0,2.0,68,0.00,,,0.00,Rainwise IP-100,2013-09-04 01:05:00,
2013-09-03 20:10:00,68.0,60.0,29.54,South,180,0.0,2.0,76,0.00,,,0.00,Rainwise IP-100,2013-09-04 01:10:00,
2013-09-03 20:15:00,68.0,60.0,29.54,South,180,0.0,0.0,76,0.00,,,0.00,Rainwise IP-100,2013-09-04 01:15:00,
2013-09-03 20:20:00,68.0,60.0,29.54,South,180,0.0,0.0,76,0.00,,,0.00,Rainwise IP-100,2013-09-04 01:20:00,
2013-09-03 20:25:00,66.0,59.0,29.55,South,180,0.0,0.0,78,0.00,,,0.00,Rainwise IP-100,2013-09-04 01:25:00,
2013-09-03 20:30:00,66.0,59.0,29.55,South,180,0.0,0.0,78,0.00,,,0.00,Rainwise IP-100,2013-09-04 01:30:00,
2013-09-03 20:34:00,66.0,59.0,29.55,South,180,0.0,0.0,78,0.00,,,0.00,Rainwise IP-100,2013-09-04 01:34:00,
2013-09-03 20:39:00,66.0,59.0,29.55,South,180,0.0,0.0,78,0.00,,,0.00,Rainwise IP-100,2013-09-04 01:39:00,
2013-09-03 20:44:00,66.0,59.0,29.55,South,180,0.0,0.0,78,0.00,,,0.00,Rainwise IP-100,2013-09-04 01:44:00,
2013-09-03 20:49:00,66.0,59.0,29.55,South,180,0.0,0.0,78,0.00,,,0.00,Rainwise IP-100,2013-09-04 01:49:00,
2013-09-03 20:54:00,66.0,59.0,29.55,South,180,0.0,0.0,78,0.00,,,0.00,Rainwise IP-100,2013-09-04 01:54:00,
2013-09-03 20:59:00,66.0,59.0,29.55,South,180,0.0,0.0,78,0.00,,,0.00,Rainwise IP-100,2013-09-04 01:59:00,
2013-09-03 21:04:00,66.0,59.0,29.55,South,180,0.0,0.0,78,0.00,,,0.00,Rainwise IP-100,2013-09-04 02:04:00,
2013-09-03 21:09:00,66.0,59.0,29.55,South,180,0.0,0.0,78,0.00,,,0.00,Rainwise IP-100,2013-09-04 02:09:00,
2013-09-03 21:14:00,66.0,59.0,29.55,South,180,0.0,0.0,78,0.00,,,0.00,Rainwise IP-100,2013-09-04 02:14:00,
2013-09-03 21:19:00,66.0,59.0,29.55,South,180,0.0,0.0,78,0.00,,,0.00,Rainwise IP-100,2013-09-04 02:19:00,
2013-09-03 21:24:00,64.0,58.0,29.57,South,180,0.0,1.0,82,0.00,,,0.00,Rainwise IP-100,2013-09-04 02:24:00,
2013-09-03 21:29:00,64.0,58.0,29.57,South,180,0.0,0.0,82,0.00,,,0.00,Rainwise IP-100,2013-09-04 02:29:00,
2013-09-03 21:34:00,63.0,57.0,29.57,South,180,0.0,0.0,83,0.00,,,0.00,Rainwise IP-100,2013-09-04 02:34:00,
2013-09-03 21:39:00,63.0,57.0,29.57,South,180,0.0,0.0,83,0.00,,,0.00,Rainwise IP-100,2013-09-04 02:39:00,
2013-09-03 21:44:00,63.0,57.0,29.57,South,180,0.0,0.0,83,0.00,,,0.00,Rainwise IP-100,2013-09-04 02:44:00,
2013-09-03 21:49:00,63.0,57.0,29.57,South,180,0.0,0.0,83,0.00,,,0.00,Rainwise IP-100,2013-09-04 02:49:00,
2013-09-03 21:54:00,63.0,57.0,29.57,South,180,0.0,0.0,83,0.00,,,0.00,Rainwise IP-100,2013-09-04 02:54:00,
2013-09-03 21:59:00,63.0,57.0,29.57,South,180,0.0,0.0,83,0.00,,,0.00,Rainwise IP-100,2013-09-04 02:59:00,
2013-09-03 22:04:00,63.0,57.0,29.57,South,180,0.0,0.0,83,0.00,,,0.00,Rainwise IP-100,2013-09-04 03:04:00,
2013-09-03 22:09:00,63.0,57.0,29.57,South,180,0.0,0.0,83,0.00,,,0.00,Rainwise IP-100,2013-09-04 03:09:00,
2013-09-03 22:14:00,63.0,57.0,29.57,South,180,0.0,0.0,83,0.00,,,0.00,Rainwise IP-100,2013-09-04 03:14:00,
2013-09-03 22:19:00,61.0,57.0,29.59,South,180,0.0,0.0,88,0.00,,,0.00,Rainwise IP-100,2013-09-04 03:19:00,
2013-09-03 22:24:00,61.0,57.0,29.59,South,180,0.0,0.0,88,0.00,,,0.00,Rainwise IP-100,2013-09-04 03:24:00,
2013-09-03 22:29:00,61.0,57.0,29.59,South,180,0.0,0.0,88,0.00,,,0.00,Rainwise IP-100,2013-09-04 03:29:00,
2013-09-03 22:34:00,61.0,57.0,29.59,South,180,0.0,0.0,88,0.00,,,0.00,Rainwise IP-100,2013-09-04 03:34:00,
2013-09-03 22:39:00,61.0,57.0,29.59,South,180,0.0,0.0,88,0.00,,,0.00,Rainwise IP-100,2013-09-04 03:39:00,
2013-09-03 22:44:00,61.0,57.0,29.59,South,180,0.0,0.0,88,0.00,,,0.00,Rainwise IP-100,2013-09-04 03:44:00,
2013-09-03 22:49:00,61.0,57.0,29.59,South,180,0.0,0.0,88,0.00,,,0.00,Rainwise IP-100,2013-09-04 03:49:00,
2013-09-03 22:54:00,61.0,57.0,29.59,South,180,0.0,0.0,88,0.00,,,0.00,Rainwise IP-100,2013-09-04 03:54:00,
2013-09-03 22:59:00,61.0,57.0,29.59,South,180,0.0,0.0,88,0.00,,,0.00,Rainwise IP-100,2013-09-04 03:59:00,
2013-09-03 23:01:00,61.0,57.0,29.59,South,180,0.0,0.0,88,0.00,,,0.00,Rainwise IP-100,2013-09-04 04:01:00,
2013-09-03 23:06:00,61.0,57.0,29.59,South,180,0.0,0.0,88,0.00,,,0.00,Rainwise IP-100,2013-09-04 04:06:00,
2013-09-03 23:11:00,61.0,57.0,29.59,South,180,0.0,0.0,88,0.00,,,0.00,Rainwise IP-100,2013-09-04 04:11:00,
2013-09-03 23:16:00,61.0,57.0,29.59,South,180,0.0,0.0,88,0.00,,,0.00,Rainwise IP-100,2013-09-04 04:16:00,
2013-09-03 23:21:00,61.0,57.0,29.59,South,180,0.0,0.0,88,0.00,,,0.00,Rainwise IP-100,2013-09-04 04:21:00,
2013-09-03 23:26:00,59.0,57.0,29.60,South,180,0.0,0.0,94,0.00,,,0.00,Rainwise IP-100,2013-09-04 04:26:00,
2013-09-03 23:31:00,59.0,57.0,29.60,South,180,0.0,0.0,94,0.00,,,0.00,Rainwise IP-100,2013-09-04 04:31:00,
2013-09-03 23:36:00,59.0,57.0,29.60,South,180,0.0,0.0,94,0.00,,,0.00,Rainwise IP-100,2013-09-04 04:36:00,
2013-09-03 23:41:00,60.0,57.0,29.60,South,180,0.0,0.0,93,0.00,,,0.00,Rainwise IP-100,2013-09-04 04:41:00,
2013-09-03 23:46:00,60.0,57.0,29.60,South,180,0.0,0.0,93,0.00,,,0.00,Rainwise IP-100,2013-09-04 04:46:00,
2013-09-03 23:51:00,60.0,57.0,29.60,South,180,0.0,0.0,93,0.00,,,0.00,Rainwise IP-100,2013-09-04 04:51:00,
2013-09-03 23:56:00,60.0,57.0,29.60,South,180,0.0,0.0,93,0.00,,,0.00,Rainwise IP-100,2013-09-04 04:56:00,